Погода в Гуаренасе

Венесуэла     10°28′12″N   66°37′16″W
темп.,
°C
ветер,
м/с
пор.,
м/с
влажн.,
%
обл.,
%
осадки,
мм/ч
давл.,
гПа
погр.,
м
9 мая, вс
вс923:00+20ююв129885 0.1 101791
02:00+20ююв119896 0.6 101582
05:00+20ю2398100 2.1 1015107
08:00+20ююз129697 6.6 101786
11:00+23ююв258598 1.3 1017717
14:00+24ююв248249 3.1 1014887
17:00+23ююв239472 2.9 1014210
20:00+20вюв1297100 5.6 101686
10 мая, пн
пн1023:00+20ююв119896 0.3 101774
02:00+19ю119831 0.3 101564
05:00+19ю119844 0.0 101555
08:00+21ююв239430 0.0 1016245
11:00+27вюв25525 0.0 10151261
14:00+29в244861 0.0 10121997
17:00+24всв248040 0.7 1012510
20:00+20вюв139833 1.9 1015127
11 мая, вт
вт1123:00+20ююв129842 0.1 101689
02:00+19ю119680 0.1 101547
05:00+19ююв119828 0.0 101572
08:00+21юв129343 0.0 1016351
11:00+24вюв237634 0.6 1016802
14:00+27всв346320 1.4 10131206
17:00+23всв239321 1.7 1013306
20:00+21в239841 2.6 1015160
12 мая, ср
ср1223:00+20юв129844 0.6 1016108
02:00+19ююв119735 0.8 101561
05:00+19ююв129829 0.1 101574
08:00+21ююв239444 0.1 1016302
11:00+26вюв237055 0.3 10151087
14:00+26в237637 1.7 1013966
17:00+23всв2394100 2.3 1013251
20:00+20вюв129978 2.8 1015121
13 мая, чт
чт1323:00+20юв129896 0.1 1016114
02:00+20ююв119736 0.1 101557
05:00+19ю229835 0.0 101573
08:00+22ююв239425 0.0 1016256
11:00+28вюв23548 0.0 10161337
14:00+30вюв244589 0.0 10131919
17:00+27в2360100 0.0 1012447
20:00+20юв1297100 0.0 101581